This demonstration page uses our WeatherBlox Daily Observations layout. Learn more.

Left ArrowRight Arrow

39.01783, -85.05884

Hourly Observations for October 22, 2018

Temp ( °F °C ) Dew Point ( °F °C ) Humidity (%) Winds ( mph kmh ) Pressure ( in mb ) Visibility ( mi km ) Precip ( " mm )
12:52 am 00:52 Clear 37 2.8 31 -0.6 79 79 SSW 7 11 30.22 1023 10 16 N/A
1:52 am 01:52 Clear 36 2.2 30 -1.1 79 79 SSW 7 11 30.23 1024 10 16 N/A
2:52 am 02:52 Clear 36 2.2 30 -1.1 79 79 SSW 8 13 30.22 1024 10 16 N/A
3:52 am 03:52 Clear 35 1.7 30 -1.1 82 82 S 8 13 30.22 1023 10 16 N/A
4:52 am 04:52 Clear 36 2.2 30 -1.1 79 79 SSW 6 9 30.22 1023 10 16 N/A
5:52 am 05:52 Mostly Clear 35 1.7 30 -1.1 82 82 SSW 6 9 30.21 1023 10 16 N/A
6:52 am 06:52 Partly Cloudy 34 1.1 30 -1.1 85 85 SSW 7 11 30.23 1024 10 16 N/A
7:52 am 07:52 Mostly Cloudy 33 0.6 30 -1.1 89 89 S 9 15 30.22 1024 8 13 N/A
8:52 am 08:52 Partly Cloudy 39 3.9 32 undefined 76 76 SSW 10 17 30.22 1023 10 16 N/A
9:52 am 09:52 Partly Cloudy 44 6.7 32 undefined 63 63 SSW 12 19 30.22 1024 10 16 N/A
10:52 am 10:52 Mostly Sunny 48 8.9 34 1.1 58 58 SSW 9 15 30.21 1023 10 16 N/A
11:52 am 11:52 Mostly Sunny 54 12.2 33 0.6 45 45 SW 15 24 30.19 1023 10 16 N/A
12:52 pm 12:52 Mostly Sunny 58 14.4 32 undefined 38 38 SSW 12 19 30.17 1022 10 16 N/A
1:52 pm 13:52 Partly Cloudy 60 15.6 28 -2.2 30 30 SW 16 26 30.14 1021 10 16 N/A
2:52 pm 14:52 Mostly Sunny 62 16.7 30 -1.1 30 30 SSW 15 24 30.12 1020 10 16 N/A
3:52 pm 15:52 Mostly Sunny 63 17.2 31 -0.6 30 30 SW 12 19 30.10 1019 10 16 N/A
4:52 pm 16:52 Mostly Sunny 63 17.2 32 undefined 31 31 SSW 10 17 30.09 1019 10 16 N/A
5:52 pm 17:52 Mostly Sunny 62 16.7 31 -0.6 31 31 SSW 8 13 30.08 1019 10 16 N/A
6:52 pm 18:52 Mostly Clear 58 14.4 31 -0.6 36 36 SSW 8 13 30.09 1019 10 16 N/A
7:52 pm 19:52 Clear 54 12.2 32 undefined 43 43 SW 8 13 30.11 1020 10 16 N/A
8:52 pm 20:52 Clear 52 11.1 33 0.6 49 49 SW 8 13 30.12 1020 10 16 N/A
9:52 pm 21:52 Clear 51 10.6 33 0.6 50 50 SW 8 13 30.13 1020 10 16 N/A
10:52 pm 22:52 Clear 50 10 34 1.1 54 54 SSW 8 13 30.14 1021 10 16 N/A
11:52 pm 23:52 Clear 50 10 35 1.7 57 57 SW 9 15 30.14 1021 10 16 N/A

Powered by AerisWeather